Flag for Falkland Islands Weather past 2 weeks in Stanley, Falkland Islands

Now
32 °F

Passing clouds.


Feels Like: 26 °F
Forecast: N/A
Wind: 6 mph from Northwest

Location: Mount Pleasant Airport

Current Time: Aug 1, 2015 at 7:59:42 PM

Latest Report: Aug 1, 2015 at 6:50 PM


Visibility: N/A

Pressure: 29.59 "Hg

Humidity: 93%

Dew point: 30 °F

Location of StanleyLocation

Historic Weather in Stanley — Graph

°F

Stanley temperature yesterday

Maximum temperature yesterday: 43 °F (at 12:50 AM)
Minimum temperature yesterday: 36 °F (at 6:50 PM)
Average temperature yesterday: 38 °F

Past Weeks' High & Low Weather Summary

 TemperatureHumidityPressure
High48 °F (Jul 25, 11:50 AM)100% (Jul 19, 12:50 PM)30.12 "Hg (Jul 19, 12:50 PM)
Low28 °F (Jul 19, 5:50 PM)54% (Jul 25, 11:50 PM)28.97 "Hg (Jul 19, 11:50 AM)
Average38 °F87%29.50 "Hg
* Reported Jul 17 5:50 PM — Aug 1 5:50 PM, Stanley, Weather by CustomWeather, © 2015

Note: Actual official high and low records may vary slightly from our data, if they occured in-between our weather recording intervals... More about our weather records

Advertising

Stanley weather history for previous 24 hours

 ConditionsComfort  
Time TempWeatherWind HumidityBarometerVisibility
5:50 PM
Sat, Aug 1
34 °FPassing clouds.8 mph93%29.62 "HgN/A
4:50 PM37 °FScattered clouds.10 mph87%29.62 "HgN/A
3:50 PM39 °FPartly sunny.12 mph87%29.62 "HgN/A
2:50 PM41 °FPassing clouds.14 mph81%29.65 "HgN/A
1:50 PM39 °FPassing clouds.15 mph93%29.65 "HgN/A
12:50 PM36 °FDrizzle. Partly sunny.17 mph100%29.68 "HgN/A
11:50 AM36 °FFog.15 mph100%29.68 "Hg1 mi
10:50 AM34 °FFog.15 mph100%29.68 "Hg1 mi
9:50 AM34 °FFog.16 mph100%29.68 "Hg1 mi
9:02 AM34 °FFog.14 mph100%29.68 "Hg4 mi
8:50 AM34 °FPartly sunny.13 mph100%29.68 "HgN/A
7:50 AM36 °FPassing clouds.12 mph93%29.68 "HgN/A
6:50 AM36 °FPassing clouds.13 mph93%29.68 "HgN/A
5:50 AM36 °FPassing clouds.12 mph100%29.65 "HgN/A
4:50 AM36 °FPassing clouds.13 mph100%29.68 "HgN/A
3:50 AM36 °FPassing clouds.10 mph100%29.68 "HgN/A
2:50 AM36 °FFog.9 mph100%29.68 "Hg1 mi
1:50 AM36 °FDrizzle. Low clouds.8 mph100%29.68 "Hg1 mi
12:50 AM36 °FPassing clouds.9 mph100%29.71 "HgN/A
11:50 PM
Fri, Jul 31
36 °FPassing clouds.10 mph93%29.71 "HgN/A
10:50 PM36 °FPassing clouds.15 mph87%29.71 "HgN/A
9:50 PM36 °FDrizzle. Low clouds.16 mph93%29.71 "HgN/A
8:50 PM36 °FDrizzle. Low clouds.17 mph93%29.71 "HgN/A
7:50 PM36 °FLow clouds.13 mph100%29.71 "HgN/A
Weather by CustomWeather, © 2015

See weather overviewHow to use our weather pages